Location: Newark
(15.4608°S, 41.1635°W)
Time: 05:07:10
(UTC+00:00)

XW-2B - Pass Details

Date: 24 February 2020
Orbit: 509 x 526 km, 97.5° (Epoch: 07 April)

Event Time Altitude Azimuth Distance (km) Brightness Sun altitude
Rises 07:50:59 0° 25° (NNE) 2,636 ? -13.3°
Reaches altitude 10° 07:53:09 10° 32° (NNE) 1,756 ? -12.7°
Maximum altitude 07:56:44 41° 103° (ESE) 768 ? -11.9°
Drops below altitude 10° 08:00:22 10° 174° (S) 1,780 ? -11.1°
Sets 08:02:34 0° 181° (S) 2,676 ? -10.5°
